SCP
0 0 0 0 0 0 0 0 0 0 1 1 1 1 1 1 2 2 2 2 2 2 2 2 4 6 7 7 6 4 3 3 3 3 4 4 5 5 6 8 9 10 10 9
0 0 0 0 0 1 1 1 1 1 1 2 2 2 1 1 2 2 2 2 2 2 2 2 3 4 6 6 5 4 3 3 3 4 5 5 5 6 6 7 8 9 10 9
1 0 0 1 1 1 1 1 1 1 2 3 3 2 1 1 1 2 2 2 2 3 3 3 3 3 3 4 3 3 3 3 3 4 5 6 6 7 8 7 7 8 9 9
1 1 1 1 1 1 1 1 1 1 2 3 3 2 1 1 1 2 2 2 2 3 4 4 4 3 3 2 2 3 3 4 3 3 4 5 7 8 9 8 7 7 7 7
1 1 1 1 1 1 1 1 1 2 3 3 2 2 2 2 1 1 1 2 2 2 3 4 4 3 2 2 2 3 4 4 3 3 3 4 5 6 6 6 5 5 5 6
1 1 1 1 1 1 1 1 2 3 3 3 2 2 2 2 2 1 1 2 2 2 2 3 4 3 2 2 2 3 4 5 4 3 3 3 3 3 3 3 3 3 4 4
1 1 1 2 2 1 1 2 3 3 3 2 2 2 2 2 2 2 2 2 2 2 2 3 3 3 2 2 3 4 5 5 5 4 3 2 2 2 2 2 2 2 2 3
1 1 1 2 3 2 2 3 4 3 2 2 2 1 2 2 2 2 3 3 3 3 3 3 3 3 3 4 5 6 6 5 5 3 2 2 2 2 2 2 1 1 1 2
2 2 2 2 3 3 3 4 4 3 2 2 2 1 2 2 3 3 3 3 3 3 3 3 3 4 4 5 6 6 5 5 4 3 2 2 2 2 2 2 1 1 1 1
2 2 2 2 2 2 3 3 3 2 2 2 2 2 2 3 3 3 3 3 3 3 3 3 4 4 5 5 5 4 4 4 4 3 3 3 3 2 2 2 2 1 1 1
2 2 1 1 1 2 2 2 2 2 2 2 2 1 2 2 3 3 2 2 2 2 2 3 4 4 4 4 4 3 3 4 3 3 3 3 3 2 2 2 1 1 1 1
2 1 1 1 1 1 2 2 1 2 2 2 2 1 2 2 3 2 2 2 2 2 2 4 4 4 3 3 3 3 3 3 3 3 3 3 2 2 1 1 1 0 0 0
1 1 1 1 1 1 1 1 1 1 1 2 2 2 2 2 2 2 2 2 2 2 3 4 4 3 3 2 2 2 3 3 2 3 3 2 2 2 1 1 0 0 0 0
1 1 1 1 1 1 1 1 1 1 1 1 1 1 1 2 2 2 2 2 3 3 3 3 3 2 2 1 2 2 2 2 2 2 2 2 2 2 1 1 1 1 1 0
1 1 1 1 1 1 1 1 0 0 0 0 0 1 1 1 1 1 2 2 2 2 2 2 1 1 1 1 1 1 1 1 1 1 1 2 2 2 1 1 1 1 2 1
1 1 1 1 1 0 0 0 0 0 0 0 0 0 0 0 1 1 2 2 2 2 2 1 1 1 1 1 1 1 1 1 0 0 1 1 1 1 1 1 1 1 2 1
1 1 1 1 0 0 0 0 0 0 0 0 0 0 0 0 1 1 1 1 1 1 2 2 1 1 1 1 1 1 1 1 1 1 1 1 1 1 1 1 1 1 1 1
1 1 1 1 0 0 0 0 0 0 0 0 0 0 0 0 1 1 1 1 1 1 1 1 1 1 1 1 1 1 1 1 1 1 1 1 0 0 0 0 1 1 0 0
1 1 1 1 1 0 0 0 0 0 0 0 0 0 0 0 0 1 1 1 1 1 1 1 1 1 1 1 1 1 1 1 1 1 1 1 0 0 0 0 1 1 1 1
1 1 1 1 0 0 0 0 0 0 0 0 0 0 0 0 0 0 1 1 1 1 1 1 1 1 1 1 1 1 2 1 1 1 1 1 1 1 1 1 1 1 1 1
0 0 0 0 0 0 0 0 0 0 0 0 0 0 0 0 0 0 0 0 1 1 1 1 1 0 0 0 1 1 2 2 2 2 2 2 2 2 2 2 1 1 1 1
0 0 0 0 0 0 0 0 0 0 0 0 0 0 0 0 0 0 0 0 0 1 1 1 0 0 0 0 1 1 2 2 2 2 2 2 2 2 2 2 2 1 1 1
0 0 0 0 0 0 0 0 0 0 0 0 0 0 0 0 0 0 0 0 0 0 0 0 0 0 0 0 1 1 1 1 2 2 2 1 1 1 1 1 1 1 1 1
0 0 0 0 0 0 1 1 0 0 0 0 0 0 0 0 0 0 0 0 0 0 0 0 0 0 0 0 0 0 1 1 1 1 1 0 0 0 1 1 1 1 1 1
0 0 0 0 0 0 1 1 0 0 0 0 0 0 0 0 0 0 0 0 0 0 0 0 0 0 0 0 0 0 0 0 0 0 0 0 0 0 0 1 1 1 1 1
0 0 0 0 0 0 0 0 0 0 0 0 0 0 0 0 0 0 0 0 0 0 0 0 0 0 0 0 0 0 0 0 0 0 0 0 0 0 0 0 0 0 1 1
0 0 0 0 0 0 0 0 0 0 0 0 0 0 0 0 0 0 0 0 0 0 0 0 0 0 0 0 0 0 0 0 0 0 0 0 0 0 0 0 0 0 0 1
Wind_Speed
14 13 11 11 11 12 14 13 14 11 9 5 3 3 2 1 0 1 1 1 1 1 1 2 2 2 2 3 3 3 4 4 4 4 4 4 4 4 4 4 5 5 5 5
13 13 12 12 12 12 12 12 13 12 9 4 3 2 2 1 1 1 1 1 1 1 2 2 2 2 3 3 3 3 4 4 4 4 4 4 4 4 4 4 5 5 5 5
11 9 12 13 10 10 10 10 10 11 6 2 2 2 2 1 0 0 1 1 0 1 1 1 2 2 2 3 3 4 4 4 4 4 4 4 4 4 4 4 4 4 5 5
9 9 13 4 4 7 9 7 7 6 3 2 2 3 2 1 1 1 1 1 0 1 1 1 2 2 2 3 4 4 4 3 3 3 3 3 3 4 4 3 4 4 4 5
8 11 9 4 3 5 8 7 4 4 3 2 1 2 1 2 2 1 1 1 0 0 1 1 1 2 2 3 3 3 3 3 3 3 3 3 4 4 4 4 4 5 4 5
9 11 9 2 1 3 7 7 1 3 3 2 3 4 0 2 2 1 1 1 0 1 1 1 1 2 2 3 3 3 3 3 3 3 3 3 3 4 4 4 5 5 4 4
10 10 5 4 2 3 7 3 2 2 3 4 4 4 2 1 2 1 1 0 0 1 1 1 2 2 2 2 2 2 2 2 2 3 3 4 3 3 4 4 4 4 4 4
8 9 3 5 1 2 3 3 2 2 3 3 2 1 1 1 1 1 1 1 1 1 1 1 1 2 1 1 1 1 1 2 2 2 3 2 3 3 3 3 4 4 3 4
4 3 3 3 4 3 3 3 3 2 2 2 2 1 1 1 0 0 1 1 1 1 1 1 1 1 1 0 1 1 1 2 2 2 2 2 2 2 2 2 3 3 3 3
3 2 2 3 3 3 4 4 4 3 2 2 2 1 1 0 1 0 1 1 0 1 1 1 0 0 0 0 0 1 1 2 2 2 2 1 2 2 2 2 2 3 3 3
4 3 3 2 4 5 5 4 3 2 2 2 2 2 1 1 0 0 0 0 0 0 0 0 0 0 1 1 1 1 1 2 2 2 1 2 2 2 3 2 2 3 3 4
4 4 4 4 5 6 5 5 4 3 1 1 1 1 1 0 0 0 0 0 0 1 1 0 0 0 1 0 1 1 1 2 2 2 1 2 2 1 1 2 2 3 4 5
5 6 5 4 4 4 4 4 4 3 1 1 0 1 1 1 1 1 1 1 0 1 1 1 0 1 1 1 1 1 2 2 2 2 2 2 2 3 3 3 5 5 6 5
4 4 3 3 3 4 4 4 4 3 2 2 2 1 1 1 1 1 1 1 0 0 1 1 1 1 1 1 1 1 2 2 3 2 3 3 3 3 4 4 3 3 5 7
5 4 3 2 3 3 3 3 3 3 3 3 2 2 2 2 1 1 1 1 1 1 1 1 2 2 2 2 1 2 2 1 2 2 3 3 3 3 4 4 4 4 3 3
4 3 2 2 3 3 3 2 2 2 2 3 2 2 2 1 1 1 2 1 1 1 1 1 2 3 3 3 2 2 2 1 3 3 3 3 3 3 3 3 3 3 4 4
4 3 3 3 3 3 2 2 2 2 2 1 1 1 1 1 1 2 2 1 1 1 1 2 2 3 3 3 3 2 2 1 3 3 3 3 3 3 3 4 4 4 3 2
4 4 4 4 3 2 2 2 2 2 2 1 1 1 2 2 2 1 1 1 1 2 2 2 3 4 4 3 3 3 3 3 2 3 3 3 4 4 4 4 4 4 4 2
4 4 4 3 3 3 2 2 2 2 2 1 1 2 2 1 2 2 1 1 1 1 2 3 3 3 3 3 3 3 3 3 3 3 3 3 4 4 4 4 4 4 4 4
3 3 3 3 3 3 2 2 2 2 2 1 1 1 2 1 1 2 2 2 2 3 3 3 4 4 4 3 5 4 3 4 4 3 3 4 4 4 4 4 4 4 4 4
3 3 3 3 3 3 3 3 2 2 2 1 1 1 1 1 1 2 2 2 2 3 3 2 2 3 4 5 5 4 3 4 4 4 4 4 4 4 4 4 4 4 4 4
3 3 4 4 3 4 3 3 3 2 2 2 2 2 2 2 2 2 2 2 2 3 3 3 3 4 6 7 5 4 4 5 4 4 4 4 4 4 4 4 4 4 4 4
3 3 3 3 3 3 3 3 3 2 2 2 2 2 2 3 2 2 2 2 3 4 4 4 5 5 6 6 5 4 4 5 5 4 4 5 4 4 4 4 4 4 4 4
3 3 3 3 3 3 3 3 3 2 2 2 2 2 2 2 2 2 2 2 2 3 4 3 3 3 6 5 4 4 4 4 4 5 5 5 5 4 4 4 4 4 4 4
3 3 3 3 3 3 2 2 2 2 2 2 3 3 2 2 3 3 3 3 3 3 4 3 1 4 5 4 3 4 4 4 5 5 5 5 5 5 5 4 5 4 4 4
3 3 3 3 3 3 2 2 2 2 2 2 3 3 3 2 3 2 2 2 3 3 4 3 3 3 4 4 4 4 4 4 4 4 5 5 5 5 4 5 6 5 4 4
3 2 2 2 2 2 2 2 3 3 3 3 3 3 3 3 3 3 3 3 3 3 3 3 3 3 4 4 4 4 4 4 4 4 4 4 4 4 4 5 5 4 4 4
Wind_Direction
262 265 259 253 250 242 241 250 260 268 274 289 307 312 302 297 172 187 194 184 181 177 164 174 184 190 195 185 181 187 189 190 193 199 204 210 222 221 224 230 234 234 233 240
258 251 246 248 251 245 243 250 257 263 265 300 314 309 292 294 160 189 260 268 213 179 162 175 187 188 183 180 188 198 199 193 188 194 200 208 222 228 230 233 239 238 237 242
258 252 247 241 245 243 241 246 253 258 269 296 300 303 292 288 236 337 338 351 340 184 175 177 182 185 188 177 186 198 199 199 195 199 204 216 225 227 232 236 239 242 240 242
260 253 244 235 239 243 243 248 260 265 281 287 296 305 287 326 349 351 340 344 298 193 178 172 173 176 188 182 185 196 197 200 201 208 222 229 236 239 238 238 242 243 244 244
253 249 240 219 241 240 244 240 247 260 266 280 304 269 176 39 5 347 341 2 355 200 202 189 184 183 186 191 192 202 205 213 216 222 233 237 238 242 241 240 243 245 239 244
248 257 252 253 295 264 237 230 210 252 251 248 254 263 339 20 343 346 14 31 118 164 167 169 183 193 195 199 202 212 215 217 220 230 237 240 243 242 239 243 246 252 246 245
247 254 256 360 349 245 234 270 326 277 258 255 269 301 334 313 324 343 27 50 162 162 158 174 184 191 205 210 220 230 227 227 234 241 246 243 241 240 244 248 254 259 259 254
245 249 251 18 330 254 316 340 312 291 276 274 297 326 291 295 346 39 73 90 126 136 127 138 175 194 206 230 267 243 231 239 256 266 273 254 248 248 251 259 252 248 247 253
287 300 20 2 335 337 324 309 310 300 302 271 255 227 257 298 352 358 106 105 118 134 122 117 172 209 242 289 291 254 244 264 275 277 274 270 266 267 258 251 267 274 267 267
274 277 337 340 350 359 352 336 315 301 289 255 240 232 230 202 124 138 157 146 161 160 122 92 71 325 313 298 264 261 258 268 263 253 257 261 268 268 275 278 280 282 283 286
258 279 301 322 345 344 340 336 330 308 265 233 213 198 205 197 166 193 150 135 140 119 122 92 82 56 34 15 337 286 267 265 262 251 250 259 268 289 279 290 298 278 282 281
286 310 304 315 332 338 339 343 338 322 301 276 212 182 189 145 145 137 115 77 39 356 327 329 118 93 70 7 291 264 256 275 283 283 274 272 279 266 225 250 219 240 263 278
300 305 309 313 327 334 338 341 343 344 9 36 80 129 131 105 93 96 111 99 61 355 346 340 49 62 34 341 256 258 279 288 286 290 281 276 286 291 282 241 217 223 231 238
321 313 310 338 348 357 358 355 4 24 45 53 67 92 104 83 72 99 105 100 62 358 358 4 14 9 323 290 247 265 280 281 284 286 290 292 288 280 275 278 268 249 223 219
316 307 312 343 1 4 1 7 23 37 53 63 75 82 79 69 36 23 33 48 55 36 21 5 354 346 322 299 267 274 288 302 305 302 292 292 291 284 282 280 281 282 280 231
330 345 359 10 6 355 359 16 35 45 48 53 59 60 47 32 17 36 61 69 66 22 348 336 327 327 321 309 281 261 260 270 276 281 285 288 289 288 290 289 285 283 285 291
323 333 351 352 345 345 2 16 26 36 44 55 58 62 69 62 60 56 55 36 7 340 330 326 328 335 332 322 305 282 269 233 237 263 280 292 293 295 296 292 291 287 287 313
332 338 344 344 340 360 27 26 24 23 30 29 45 63 64 55 35 39 41 16 347 338 344 340 350 336 331 332 319 300 284 273 267 277 283 286 294 295 291 287 292 296 300 288
343 346 344 350 358 15 25 26 28 39 42 42 55 60 53 42 20 358 350 342 346 341 348 351 345 309 320 335 318 287 289 285 277 279 281 275 274 285 291 291 294 299 303 305
353 356 353 358 11 18 32 40 47 59 49 38 48 42 40 32 8 349 345 340 354 357 348 344 327 326 328 344 325 305 303 292 287 287 286 287 291 293 291 291 293 297 298 296
4 7 9 15 20 28 36 35 37 51 45 32 35 24 13 1 343 335 316 327 2 4 339 314 299 326 341 344 305 298 298 291 290 294 296 295 299 302 301 302 306 308 306 305
14 22 22 21 22 25 27 21 26 28 33 21 9 9 0 347 334 326 322 334 351 17 329 316 337 14 353 317 297 302 304 306 309 312 309 306 306 309 308 309 310 310 309 309
21 22 14 7 7 8 8 7 12 13 15 3 356 350 339 334 331 323 327 356 356 14 331 341 18 11 331 305 307 312 317 321 323 323 324 322 320 318 316 317 320 320 322 322
7 6 359 348 342 350 357 0 3 5 1 347 351 351 332 319 319 325 345 18 26 4 332 13 14 324 297 294 314 325 330 328 328 333 336 333 333 335 336 334 328 325 324 320
349 340 337 330 328 336 344 348 348 349 344 349 351 347 329 328 330 343 346 350 10 342 330 349 299 284 290 321 332 336 339 343 340 337 337 334 336 340 343 341 339 332 328 321
334 329 341 335 341 331 327 329 334 342 342 349 351 349 349 349 349 348 345 341 346 343 326 330 333 314 322 333 337 340 341 342 331 325 328 329 332 333 336 337 336 335 331 326
337 343 336 328 324 316 316 324 328 332 338 344 348 347 346 352 356 355 349 343 341 339 339 334 331 333 333 334 340 342 342 339 338 336 329 327 329 331 335 334 332 332 328 330